EW9427 Weather Reports


Display with metric or nautical units.
time (UTC)temp
F
wind
direction
speed
MPH
gust
MPH
rain 1hr
in
rain 24hr
in
rain mn
in
humidity
%
barometer
mb
20260903030042 53 238 3.0 6.0 0.00 0.06 0.06 77 1008.1
20260903024541 53 235 3.0 5.0 0.00 0.06 0.06 77 1007.9
20260903023043 55 288 1.0 6.0 0.00 0.06 0.06 75 1008.1
20260903021539 56 248 2.0 14.0 0.00 0.06 0.06 73 1008.3
20260903020039 57 221 8.0 15.0 0.00 0.06 0.06 72 1008.1
20260903014538 58 240 5.0 17.0 0.00 0.06 0.06 77 1007.7
20260903013038 59 188 7.0 10.0 0.00 0.06 0.06 78 1008.1
20260903011538 58 162 6.0 9.0 0.00 0.06 0.06 80 1007.9
20260903010038 60 157 2.0 5.0 0.00 0.06 0.06 79 1007.6
20260903004545 60 14 2.0 4.0 0.00 0.06 0.06 72 1007.1
20260903003034 61 14 5.0 10.0 0.00 0.06 0.06 68 1007.4
20260903001532 60 323 1.0 6.0 0.01 0.06 0.06 67 1008.0
20260903000044 59 283 3.0 9.0 0.03 0.06 0.06 70 1008.5
20260902234534 59 224 9.0 17.0 0.06 0.06 0.06 70 1008.8
20260902233036 58 207 10.0 24.0 0.06 0.06 0.06 76 1008.9
20260902231540 58 242 18.0 30.0 0.04 0.04 0.04 74 1008.5
20260902230032 59 212 30.0 40.0 0.03 0.03 0.03 71 1007.7
20260902224531 77 161 21.0 30.0 0.00 0.00 0.00 31 1005.8
20260902223008 80 119 8.0 22.0 0.00 0.00 0.00 25 1004.1
20260902221501 80 198 7.0 11.0 0.00 0.00 0.00 32 1004.5
20260902220059 81 188 4.0 11.0 0.00 0.00 0.00 32 1004.5
20260902214619 82 212 7.0 10.0 0.00 0.00 0.00 31 1004.6
20260902213055 82 129 9.0 13.0 0.00 0.00 0.00 32 1004.8
20260902211554 82 180 7.0 10.0 0.00 0.00 0.00 32 1005.0
20260902210053 81 164 5.0 12.0 0.00 0.00 0.00 34 1005.4
20260902204545 81 138 6.0 14.0 0.00 0.00 0.00 34 1005.8
20260902203043 79 155 9.0 12.0 0.00 0.00 0.00 36 1006.0
20260902201550 78 168 5.0 12.0 0.00 0.00 0.00 37 1006.2
20260902200039 78 194 6.0 11.0 0.00 0.00 0.00 37 1006.3
20260902194543 79 201 7.0 14.0 0.00 0.00 0.00 37 1006.5
20260902193034 77 217 5.0 11.0 0.00 0.00 0.00 39 1006.6
20260902191534 77 194 7.0 13.0 0.00 0.00 0.00 38 1006.7
20260902190031 77 179 8.0 15.0 0.00 0.00 0.00 39 1006.9
20260902184529 77 200 9.0 14.0 0.00 0.00 0.00 39 1007.0
20260902183026 76 115 8.0 17.0 0.00 0.00 0.00 41 1007.2
20260902181521 75 173 8.0 16.0 0.00 0.00 0.00 43 1007.5
20260902180019 74 205 9.0 17.0 0.00 0.00 0.00 42 1007.6
20260902174523 74 156 11.0 15.0 0.00 0.00 0.00 44 1007.8
20260902173012 72 188 10.0 16.0 0.00 0.00 0.00 47 1008.0
20260902171511 71 200 8.0 12.0 0.00 0.00 0.00 48 1008.1
20260902170008 71 184 9.0 13.0 0.00 0.00 0.00 49 1007.9
20260902164514 70 215 9.0 12.0 0.00 0.00 0.00 48 1007.9
20260902163009 71 205 7.0 11.0 0.00 0.00 0.00 48 1007.9
20260902161515 70 210 6.0 12.0 0.00 0.00 0.00 48 1007.9
20260902160001 69 208 7.0 16.0 0.00 0.00 0.00 49 1008.0
20260902154559 69 191 6.0 11.0 0.00 0.00 0.00 49 1008.2
20260902153055 68 232 6.0 11.0 0.00 0.00 0.00 51 1008.3
20260902151549 64 173 1.0 3.0 0.00 0.00 0.00 57 1008.5
20260902150044 61 173 2.0 3.0 0.00 0.00 0.00 59 1008.6
20260902144548 59 173 0.0 2.0 0.00 0.00 0.00 65 1008.7
20260902143041 58 173 2.0 4.0 0.00 0.00 0.00 66 1008.9
20260902141539 57 173 2.0 3.0 0.00 0.00 0.00 69 1009.0
20260902140039 57 173 1.0 4.0 0.00 0.00 0.00 67 1009.0
20260902134538 56 173 4.0 5.0 0.00 0.00 0.00 69 1009.0
20260902133051 54 149 1.0 8.0 0.00 0.00 0.00 69 1008.8
20260902131534 53 151 3.0 7.0 0.00 0.00 0.00 73 1008.6
20260902130030 51 346 0.0 3.0 0.00 0.00 0.00 75 1008.6
20260902124526 50 346 1.0 3.0 0.00 0.00 0.00 75 1008.7
20260902123024 50 346 1.0 5.0 0.00 0.00 0.00 75 1008.4
20260902121522 50 346 1.0 4.0 0.00 0.00 0.00 76 1008.6
20260902120022 51 225 1.0 5.0 0.00 0.00 0.00 73 1008.8
20260902114523 53 323 2.0 6.0 0.00 0.00 0.00 70 1008.9
20260902113019 52 313 1.0 5.0 0.00 0.00 0.00 74 1009.1
20260902111519 51 273 3.0 10.0 0.00 0.00 0.00 77 1009.2
20260902110019 47 293 1.0 3.0 0.00 0.00 0.00 80 1009.3
20260902104517 46 293 2.0 4.0 0.00 0.00 0.00 80 1009.5
20260902103015 46 292 0.0 3.0 0.00 0.00 0.00 79 1009.0
20260902101516 46 293 1.0 3.0 0.00 0.00 0.00 78 1009.0
20260902100010 47 292 1.0 3.0 0.00 0.00 0.00 78 1009.0
20260902094509 48 293 1.0 4.0 0.00 0.00 0.00 75 1008.7
20260902093005 48 331 3.0 7.0 0.00 0.00 0.00 74 1008.9
20260902091503 48 282 2.0 8.0 0.00 0.00 0.00 77 1009.0
20260902090002 47 290 2.0 4.0 0.00 0.00 0.00 77 1009.3
20260902084605 48 287 1.0 4.0 0.00 0.00 0.00 75 1009.3
20260902083112 49 315 2.0 4.0 0.00 0.00 0.00 74 1009.3
20260902081551 50 314 2.0 4.0 0.00 0.00 0.00 74 1009.3
20260902080047 50 315 0.0 2.0 0.00 0.00 0.00 73 1009.3
20260902074544 51 315 2.0 5.0 0.00 0.00 0.00 71 1009.4
20260902073042 51 279 3.0 4.0 0.00 0.00 0.00 71 1009.4
20260902071538 52 139 1.0 3.0 0.00 0.00 0.00 69 1009.2
20260902070037 55 138 0.0 2.0 0.00 0.00 0.00 65 1009.2
20260902064533 57 139 1.0 2.0 0.00 0.00 0.00 60 1009.4
20260902063027 59 138 1.0 3.0 0.00 0.00 0.00 56 1009.5
20260902061537 60 139 0.0 3.0 0.00 0.00 0.00 53 1009.5
20260902060018 60 139 0.0 1.0 0.00 0.00 0.00 53 1009.6
20260902054522 60 139 0.0 2.0 0.00 0.00 0.00 54 1009.7
20260902053017 60 138 0.0 2.0 0.00 0.00 0.00 54 1009.7
20260902051516 60 139 1.0 4.0 0.00 0.00 0.00 54 1009.7
20260902050016 58 139 2.0 4.0 0.00 0.00 0.00 58 1009.6
20260902044523 56 138 0.0 0.0 0.00 0.00 0.00 62 1009.8
20260902043014 57 139 0.0 2.0 0.00 0.00 0.00 62 1009.8
20260902041514 57 139 1.0 2.0 0.00 0.00 0.00 60 1009.8
20260902040014 60 138 0.0 0.0 0.00 0.00 0.00 54 1009.8
20260902034513 60 139 0.0 0.0 0.00 0.00 0.00 52 1009.8
20260902033012 62 139 0.0 0.0 0.00 0.00 0.00 49 1010.0
20260902031518 63 139 0.0 1.0 0.00 0.00 0.00 46 1009.9